Location: McCall
(45.0000°N, 116.0000°W)
Time: 01:01:30
(UTC-07:00)

Amateur Radio Satellites - All Passes

Search period start: 20 January 2017 00:31
Search period end: 21 January 2017 00:31
Location: McCall, 45.0000°N, 116.0000°W

Satellite Date Start Highest point End Downlink Frequencies (MHz)
Time Altitude Azimuth
BEESAT 2 20 Jan 00:33:57 00:36:05 14° 34° (NE) 00:38:14 435.950
BUGSAT 1 20 Jan 00:35:09 00:38:30 25° 95° (E) 00:41:50 437.445
CUBEBUG 1 20 Jan 00:38:42 00:42:18 24° 266° (W) 00:45:54 437.445
AISAT 20 Jan 00:53:25 00:57:07 25° 265° (W) 01:00:49 437.250
QB50P1 20 Jan 00:54:41 00:58:51 60° 287° (WNW) 01:03:01 145.935-145.965
RS-15 20 Jan 00:56:23 01:08:20 89° 124° (ESE) 01:20:47 29.354- 29.394
POLYITAN 1 20 Jan 00:58:41 01:02:49 54° 287° (WNW) 01:06:56 437.675
QB50P2 20 Jan 00:59:57 01:04:03 49° 288° (WNW) 01:08:07 145.880/145.840
Cosmos 2491 20 Jan 01:00:26 01:05:16 16° 74° (ENE) 01:10:04 435.465 / 435.565
Oscar 19 20 Jan 01:04:40 01:07:53 16° 90° (E) 01:11:06 437.125/150
Gurwin Techsat 1B 20 Jan 01:15:40 01:17:04 11° 86° (E) 01:18:27 435.225
ISS 20 Jan 01:19:37 01:22:33 29° 347° (NNW) 01:25:28 145.825
POPSAT HIP 1 20 Jan 01:21:52 01:25:38 32° 291° (WNW) 01:29:24 437.405
BEESAT 3 20 Jan 01:26:58 01:30:57 64° 53° (NE) 01:34:55 437.485
50 SAT 20 Jan 01:28:27 01:29:22 11° 270° (W) 01:30:17 437.505
VELOX 1 20 Jan 01:28:59 01:30:53 12° 271° (W) 01:32:48 145.980
DUCHIFAT 1 20 Jan 01:33:32 01:37:08 28° 292° (WNW) 01:40:43 145.980
AIST 1 20 Jan 01:37:49 01:42:08 77° 82° (E) 01:46:22
NANOSAT C BR1 20 Jan 01:38:59 01:42:20 23° 294° (WNW) 01:45:41 145.865
Cosmos 2504 20 Jan 01:42:09 01:48:49 33° 69° (ENE) 01:55:11 435.465 / 435.565
ITUPSAT 1 20 Jan 01:43:05 01:47:09 29° 65° (ENE) 01:51:13 437.325
JAS-2 20 Jan 01:52:45 01:57:42 21° 303° (WNW) 02:02:56 435.910
TISAT 1 20 Jan 01:53:14 01:57:17 48° 260° (W) 02:01:21 437.305
PCSat 20 Jan 02:00:50 02:06:14 74° 303° (WNW) 02:11:42 145.827
YUBILEINY 20 Jan 02:01:26 02:10:20 81° 81° (E) 02:19:07 435.215
UKube-1 20 Jan 02:02:33 02:04:51 14° 269° (W) 02:07:09 .
DX 1 20 Jan 02:03:58 02:04:51 10° 272° (W) 02:05:44 434.975-435.025
BUGSAT 1 20 Jan 02:10:22 02:13:51 29° 292° (WNW) 02:17:21 437.445
BEESAT 2 20 Jan 02:10:29 02:14:34 79° 55° (NE) 02:18:36 435.950
BEESAT 20 Jan 02:17:20 02:22:00 60° 72° (ENE) 02:26:43 436.000
SWISSCUBE 20 Jan 02:18:51 02:23:35 70° 73° (ENE) 02:28:20 437.505
MOZHAYETS 4 20 Jan 02:18:57 02:22:15 20° 63° (ENE) 02:25:33
M-CUBED/EXP-1 PRIME 20 Jan 02:26:15 02:29:01 17° 59° (ENE) 02:31:40 437.505
Oscar 19 20 Jan 02:42:33 02:47:43 67° 287° (WNW) 02:52:49 437.125/150
CUSAT 1 20 Jan 02:47:54 02:51:51 21° 80° (E) 02:56:31 437.405
Cosmos 2491 20 Jan 02:51:53 03:00:34 79° 95° (E) 03:09:18 435.465 / 435.565
Gurwin Techsat 1B 20 Jan 02:52:28 02:57:49 83° 104° (ESE) 03:03:08 435.225
ISS 20 Jan 02:56:51 02:59:39 26° 7° (N) 03:02:27 145.825
AUBIESAT-1 20 Jan 03:02:16 03:05:58 30° 64° (ENE) 03:09:27 437.475
KKS-1 20 Jan 03:02:29 03:05:33 19° 63° (ENE) 03:08:39 437.445
BEESAT 3 20 Jan 03:06:02 03:08:05 14° 250° (WSW) 03:10:05 437.485
CUBESAT XI-V 20 Jan 03:06:08 03:06:58 10° 57° (ENE) 03:07:47 437.345
RS-15 20 Jan 03:11:25 03:22:35 40° 332° (NNW) 03:34:02 29.354- 29.394
ITUPSAT 1 20 Jan 03:20:31 03:24:52 35° 263° (W) 03:29:15 437.325
ITAMSAT 1 20 Jan 03:24:27 03:29:12 34° 97° (E) 03:33:56 435.822/435.867
Cosmos 2504 20 Jan 03:35:22 03:42:26 48° 270° (W) 03:49:13 435.465 / 435.565
DANDE 20 Jan 03:36:23 03:37:29 11° 76° (ENE) 03:38:40 436.750
PHONESAT 2.4 20 Jan 03:39:15 03:41:00 19° 168° (SSE) 03:42:46 2401.200-2431.200
PCSat 20 Jan 03:47:04 03:50:35 17° 325° (NW) 03:54:08 145.827
BEESAT 2 20 Jan 03:50:33 03:51:44 11° 252° (WSW) 03:52:54 435.950
AO-7 20 Jan 03:52:46 04:00:40 44° 99° (E) 04:08:29 29.400- 29.500
MOZHAYETS 4 20 Jan 03:54:37 03:59:03 49° 261° (W) 04:03:32
STARS 20 Jan 03:56:06 03:59:52 29° 67° (ENE) 04:03:39 437.465
BEESAT 20 Jan 03:57:14 04:00:11 16° 269° (W) 04:03:09 436.000
M-CUBED/EXP-1 PRIME 20 Jan 03:58:50 04:03:09 56° 254° (WSW) 04:07:12 437.505
SWISSCUBE 20 Jan 03:59:22 04:01:52 14° 271° (W) 04:04:22 437.505
YUBILEINY 20 Jan 03:59:39 04:06:04 23° 282° (WNW) 04:12:27 435.215
AIST 2 20 Jan 04:04:09 04:07:59 31° 45° (NE) 04:11:47 435.215
Oscar 19 20 Jan 04:25:00 04:26:03 11° 306° (NW) 04:27:06 437.125/150
CUSAT 1 20 Jan 04:27:45 04:32:54 61° 286° (WNW) 04:39:36 437.405
ISS 20 Jan 04:33:18 04:36:33 66° 28° (NNE) 04:39:46 145.825
Gurwin Techsat 1B 20 Jan 04:33:57 04:37:05 16° 302° (WNW) 04:40:12 435.225
AUBIESAT-1 20 Jan 04:36:40 04:40:19 27° 258° (WSW) 04:43:49 437.475
KKS-1 20 Jan 04:37:26 04:41:46 50° 260° (W) 04:46:06 437.445
CUBESAT XI-V 20 Jan 04:38:48 04:43:30 77° 75° (ENE) 04:48:14 437.345
BRITE-PL 20 Jan 04:45:24 04:48:52 19° 89° (E) 04:52:09 437.365/2234.400
Cosmos 2491 20 Jan 04:51:32 04:58:25 25° 298° (WNW) 05:05:22 435.465 / 435.565
ITAMSAT 1 20 Jan 05:03:59 05:08:38 33° 294° (WNW) 05:13:15 435.822/435.867
PHONESAT 2.4 20 Jan 05:12:45 05:14:44 24° 184° (S) 05:16:42 2401.200-2431.200
DANDE 20 Jan 05:15:03 05:18:54 69° 283° (WNW) 05:24:11 436.750
RS-15 20 Jan 05:29:12 05:39:40 30° 6° (N) 05:50:05 29.354- 29.394
STARS 20 Jan 05:32:21 05:36:10 29° 264° (W) 05:40:00 437.465
HORYU 2 20 Jan 05:36:27 05:40:10 25° 95° (E) 05:43:52 437.375
AIST 2 20 Jan 05:42:38 05:46:27 33° 244° (WSW) 05:50:15 435.215
AO-7 20 Jan 05:45:35 05:53:30 49° 299° (WNW) 06:01:21 29.400- 29.500
Cosmos 2499 20 Jan 05:56:34 06:01:57 22° 63° (ENE) 06:07:13 435.465 / 435.565
O/OREOS (USA 219) 20 Jan 05:57:52 06:00:18 15° 99° (E) 06:02:44 437.305
ISS 20 Jan 06:10:20 06:12:44 19° 224° (SW) 06:15:07 145.825
CUTE-I 20 Jan 06:11:45 06:16:00 23° 93° (E) 06:20:13 437.470
CUSAT 1 20 Jan 06:14:37 06:16:44 12° 311° (NW) 06:19:00 437.405
STRAND 1 20 Jan 06:15:56 06:20:16 29° 64° (ENE) 06:24:37 437.568
CUBESAT XI-V 20 Jan 06:19:26 06:21:26 12° 272° (W) 06:23:25 437.345
BRITE-PL 20 Jan 06:22:56 06:27:45 50° 289° (WNW) 06:32:11 437.365/2234.400
GOMX 1 20 Jan 06:28:31 06:33:01 78° 102° (ESE) 06:37:15 467.674
LilacSat-2 20 Jan 06:32:28 06:36:04 37° 98° (E) 06:39:41 437.200
PHONESAT 2.4 20 Jan 06:47:21 06:48:22 12° 200° (SSW) 06:49:22 2401.200-2431.200
GONETS M04 20 Jan 06:48:24 06:56:47 44° 71° (ENE) 07:05:07
Cubesat XI-IV 20 Jan 06:54:12 06:59:27 54° 101° (E) 07:04:40 437.490
NOAA 18 20 Jan 06:56:16 07:01:06 31° 96° (E) 07:05:53 137.9125
CINEMA 3 20 Jan 07:03:35 07:06:16 16° 92° (E) 07:08:57 145.822/145.860
NOAA 15 20 Jan 07:04:17 07:09:37 69° 103° (ESE) 07:14:54 137.62
DOVE 4 20 Jan 07:09:06 07:13:21 81° 104° (ESE) 07:17:29 437.250
HORYU 2 20 Jan 07:12:44 07:16:45 34° 292° (WNW) 07:20:46 437.375
CANX-2 20 Jan 07:21:33 07:24:26 17° 91° (E) 07:27:19 2200.000
SEEDS 20 Jan 07:33:51 07:35:57 13° 89° (E) 07:38:04 437.485
O/OREOS (USA 219) 20 Jan 07:34:45 07:39:10 61° 297° (WNW) 07:43:37 437.305
HO-68 20 Jan 07:38:51 07:45:06 31° 95° (E) 07:51:19 435.675
AO-7 20 Jan 07:40:42 07:44:15 13° 322° (NW) 07:47:49 29.400- 29.500
COMPASS 1 20 Jan 07:41:28 07:41:43 10° 87° (E) 07:41:57 437.405
RS-15 20 Jan 07:43:59 07:56:01 51° 39° (NE) 08:07:41 29.354- 29.394
Cosmos 2499 20 Jan 07:48:44 07:55:53 73° 265° (W) 08:02:54 435.465 / 435.565
CUTE-I 20 Jan 07:51:10 07:56:19 50° 291° (WNW) 08:01:27 437.470
AAUSAT CUBESAT 2 20 Jan 07:52:40 07:53:17 10° 88° (E) 07:53:54 437.432
STRAND 1 20 Jan 07:54:33 07:59:18 39° 262° (W) 08:04:05 437.568
CUBEBUG 2 20 Jan 07:59:59 08:02:48 17° 91° (E) 08:05:40 437.445
LilacSat-2 20 Jan 08:07:22 08:10:07 19° 294° (WNW) 08:12:51 437.200
GOMX 1 20 Jan 08:08:37 08:10:23 12° 302° (WNW) 08:12:08 467.674
SO-50 20 Jan 08:24:08 08:28:39 47° 119° (ESE) 08:33:08 436.795
PRISM 20 Jan 08:24:22 08:27:54 27° 67° (ENE) 08:31:27 437.425
FUNcube-1 20 Jan 08:26:27 08:27:52 11° 88° (E) 08:29:17 145.935
CUTE 1.7 + AOD 2 20 Jan 08:27:02 08:31:21 74° 101° (ESE) 08:35:38 437.475
UWE-3 20 Jan 08:28:30 08:31:53 21° 93° (E) 08:35:18 435.000/436.395/437.385
Cubesat XI-IV 20 Jan 08:35:01 08:39:10 23° 298° (WNW) 08:43:18 437.490
NOAA 18 20 Jan 08:36:46 08:41:49 39° 294° (WNW) 08:46:51 137.9125
CINEMA 3 20 Jan 08:39:39 08:43:39 46° 288° (WNW) 08:47:44 145.822/145.860
NOAA 15 20 Jan 08:45:13 08:48:51 19° 301° (WNW) 08:52:27 137.62
GONETS M04 20 Jan 08:45:23 08:53:38 46° 272° (W) 09:01:52
UNISAT 6 20 Jan 08:45:28 08:47:53 15° 62° (ENE) 08:50:19 437.425
ZACube-1 20 Jan 08:47:48 08:51:09 21° 93° (E) 08:54:32 437.345
DOVE 4 20 Jan 08:49:23 08:50:23 11° 301° (WNW) 08:51:23 437.250
CANX-2 20 Jan 08:56:24 09:00:33 47° 288° (WNW) 09:04:39 2200.000
TIGRISAT 20 Jan 08:58:16 09:01:12 19° 64° (ENE) 09:04:09 435.000
PCSat 20 Jan 09:03:54 09:08:27 26° 43° (NE) 09:12:59 145.827
SEEDS 20 Jan 09:07:50 09:12:03 60° 286° (WNW) 09:16:13 437.485
ANTELSAT 20 Jan 09:12:42 09:16:15 27° 67° (ENE) 09:19:51 437.575/2403.000
COMPASS 1 20 Jan 09:13:34 09:17:48 78° 285° (WNW) 09:21:59 437.405
Oscar 11 20 Jan 09:24:05 09:28:14 41° 98° (E) 09:32:21 145.826/435.025
AAUSAT CUBESAT 2 20 Jan 09:25:04 09:29:16 75° 285° (WNW) 09:33:25 437.432
HO-68 20 Jan 09:26:09 09:33:08 56° 294° (WNW) 09:40:05 435.675
CUBEBUG 2 20 Jan 09:35:31 09:39:41 50° 288° (WNW) 09:43:58 437.445
Cosmos 2499 20 Jan 09:45:24 09:47:32 11° 286° (WNW) 09:49:41 435.465 / 435.565
RS-15 20 Jan 09:56:59 10:09:03 63° 245° (WSW) 10:20:39 29.354- 29.394
PRISM 20 Jan 09:59:30 10:03:07 28° 264° (W) 10:06:46 437.425
FUNcube-1 20 Jan 10:00:13 10:04:35 76° 285° (WNW) 10:09:02 145.935
UWE-3 20 Jan 10:04:24 10:08:27 39° 289° (WNW) 10:12:36 435.000/436.395/437.385
CUTE 1.7 + AOD 2 20 Jan 10:04:42 10:06:37 13° 299° (WNW) 10:08:30 437.475
SO-50 20 Jan 10:05:15 10:09:19 28° 318° (NW) 10:13:20 436.795
QB50P1 20 Jan 10:15:20 10:17:28 14° 61° (ENE) 10:19:36 145.935-145.965
POLYITAN 1 20 Jan 10:19:07 10:21:32 15° 62° (ENE) 10:23:57 437.675
UNISAT 6 20 Jan 10:19:56 10:24:08 59° 259° (W) 10:28:22 437.425
QB50P2 20 Jan 10:20:05 10:22:44 16° 63° (ENE) 10:25:24 145.880/145.840
JAS-2 20 Jan 10:21:34 10:26:41 48° 68° (ENE) 10:32:22 435.910
ZACube-1 20 Jan 10:23:28 10:27:34 40° 289° (WNW) 10:31:43 437.345
TIGRISAT 20 Jan 10:33:31 10:37:35 45° 261° (W) 10:41:41 435.000
HUMSAT D 20 Jan 10:35:24 10:39:33 47° 99° (E) 10:43:41 437.325/437.525
POPSAT HIP 1 20 Jan 10:40:47 10:44:09 24° 66° (ENE) 10:47:30 437.405
DELFI C3 20 Jan 10:43:23 10:47:24 77° 285° (WNW) 10:51:22 145.870
PCSat 20 Jan 10:46:54 10:52:16 61° 243° (WSW) 10:57:35 145.827
ANTELSAT 20 Jan 10:49:10 10:52:55 29° 264° (W) 10:56:40 437.575/2403.000
DUCHIFAT 1 20 Jan 10:51:35 10:55:03 26° 67° (ENE) 10:58:33 145.980
NANOSAT C BR1 20 Jan 10:56:47 11:00:31 32° 69° (ENE) 11:04:15 145.865
Oscar 11 20 Jan 11:00:48 11:04:06 21° 295° (WNW) 11:07:23 145.826/435.025
HO-68 20 Jan 11:16:23 11:19:21 13° 315° (NW) 11:22:19 435.675
ESTCUBE 1 20 Jan 11:26:26 11:30:05 23° 94° (E) 11:33:41 437.505/2401.250
BUGSAT 1 20 Jan 11:26:50 11:30:03 23° 66° (ENE) 11:33:16 437.445
VELOX 1 20 Jan 11:40:00 11:41:17 11° 88° (E) 11:42:33 145.980
QB50P1 20 Jan 11:48:34 11:52:43 64° 259° (WSW) 11:56:54 145.935-145.965
POLYITAN 1 20 Jan 11:52:46 11:56:53 57° 259° (W) 12:01:02 437.675
QB50P2 20 Jan 11:54:03 11:58:08 51° 260° (W) 12:02:16 145.880/145.840
BY70-1 20 Jan 12:01:49 12:05:09 63° 285° (WNW) 12:08:16 436.1900
JAS-2 20 Jan 12:07:49 12:12:10 25° 269° (W) 12:16:51 435.910
SPROUT 20 Jan 12:07:52 12:10:37 17° 91° (E) 12:13:22 437.525
HUMSAT D 20 Jan 12:11:51 12:14:49 19° 296° (WNW) 12:17:48 437.325/437.525
DX 1 20 Jan 12:12:06 12:13:37 12° 89° (E) 12:15:07 434.975-435.025
RS-15 20 Jan 12:13:12 12:18:46 14° 267° (W) 12:24:16 29.354- 29.394
POPSAT HIP 1 20 Jan 12:15:58 12:19:46 33° 263° (W) 12:23:35 437.405
Oscar 19 20 Jan 12:22:52 12:27:21 30° 65° (ENE) 12:31:52 437.125/150
CUBEBUG 1 20 Jan 12:24:12 12:28:28 53° 100° (E) 12:32:40 437.445
DUCHIFAT 1 20 Jan 12:27:01 12:30:40 29° 264° (W) 12:34:19 145.980
NANOSAT C BR1 20 Jan 12:32:54 12:36:16 24° 266° (W) 12:39:39 145.865
Gurwin Techsat 1B 20 Jan 12:37:12 12:41:20 24° 62° (ENE) 12:45:29 435.225
AISAT 20 Jan 12:40:30 12:44:48 51° 100° (E) 12:49:03 437.250
50 SAT 20 Jan 12:49:01 12:52:28 44° 99° (E) 12:55:51 437.505
Cosmos 2491 20 Jan 12:59:53 13:08:11 44° 71° (ENE) 13:16:27 435.465 / 435.565
BUGSAT 1 20 Jan 13:01:38 13:05:17 31° 263° (W) 13:08:55 437.445
ESTCUBE 1 20 Jan 13:02:47 13:07:00 38° 291° (WNW) 13:11:11 437.505/2401.250
AO-7 20 Jan 13:05:04 13:10:26 19° 45° (NE) 13:15:47 29.400- 29.500
ITAMSAT 1 20 Jan 13:10:17 13:10:51 10° 53° (NE) 13:11:24 435.822/435.867
YUBILEINY 20 Jan 13:11:51 13:17:27 19° 76° (ENE) 13:23:03 435.215
VELOX 1 20 Jan 13:13:51 13:18:16 76° 285° (WNW) 13:22:38 145.980
CUSAT 1 20 Jan 13:16:40 13:23:13 27° 62° (ENE) 13:29:32 437.405
TISAT 1 20 Jan 13:35:27 13:38:39 21° 94° (E) 13:41:50 437.305
SPROUT 20 Jan 13:42:43 13:46:48 47° 288° (WNW) 13:50:53 437.525
UKube-1 20 Jan 13:44:59 13:49:20 83° 104° (ESE) 13:53:38 .
DX 1 20 Jan 13:45:58 13:50:17 72° 287° (WNW) 13:54:36 434.975-435.025
CUBEBUG 1 20 Jan 14:01:32 14:04:20 17° 298° (WNW) 14:07:07 437.445
Oscar 19 20 Jan 14:01:43 14:06:33 38° 263° (W) 14:11:24 437.125/150
DANDE 20 Jan 14:06:13 14:12:16 25° 64° (ENE) 14:18:45 436.750
AO-85 20 Jan 14:07:33 14:11:52 36° 118° (ESE) 14:15:54 145.980
AIST 1 20 Jan 14:08:54 14:12:59 40° 93° (E) 14:17:04
Gurwin Techsat 1B 20 Jan 14:15:46 14:20:56 53° 260° (W) 14:26:09 435.225
BEESAT 20 Jan 14:17:10 14:19:23 13° 89° (E) 14:21:36 436.000
AISAT 20 Jan 14:17:55 14:20:53 18° 298° (WNW) 14:23:51 437.250
SWISSCUBE 20 Jan 14:18:20 14:21:08 15° 90° (E) 14:23:54 437.505
Cosmos 2504 20 Jan 14:22:45 14:29:46 29° 83° (E) 14:36:27 435.465 / 435.565
50 SAT 20 Jan 14:23:28 14:25:18 14° 297° (WNW) 14:27:07 437.505
ITAMSAT 1 20 Jan 14:44:13 14:49:19 65° 72° (ENE) 14:54:27 435.822/435.867
AO-7 20 Jan 14:53:29 15:01:45 69° 67° (ENE) 15:10:05 29.400- 29.500
Cosmos 2491 20 Jan 14:56:52 15:05:03 46° 272° (W) 15:13:16 435.465 / 435.565
CUSAT 1 20 Jan 14:57:57 15:05:59 78° 262° (W) 15:13:26 437.405
YUBILEINY 20 Jan 15:04:03 15:12:53 86° 97° (E) 15:21:47 435.215
TISAT 1 20 Jan 15:10:33 15:14:23 36° 291° (WNW) 15:18:13 437.305
SO-50 20 Jan 15:14:10 15:16:50 15° 32° (NNE) 15:19:28 436.795
ITUPSAT 1 20 Jan 15:18:21 15:23:03 50° 100° (E) 15:27:43 437.325
UKube-1 20 Jan 15:23:12 15:24:43 12° 301° (WNW) 15:26:14 .
AIST 1 20 Jan 15:47:33 15:50:45 20° 290° (WNW) 15:53:58
MOZHAYETS 4 20 Jan 15:47:34 15:51:46 33° 96° (E) 15:55:57
DANDE 20 Jan 15:48:00 15:55:44 86° 260° (W) 16:04:09 436.750
AO-85 20 Jan 15:48:12 15:52:19 32° 315° (NW) 15:56:11 145.980
BEESAT 20 Jan 15:52:54 15:57:42 75° 286° (WNW) 16:02:29 436.000
SWISSCUBE 20 Jan 15:54:35 15:59:22 65° 287° (WNW) 16:04:06 437.505
BRITE-PL 20 Jan 15:56:30 16:01:28 32° 66° (ENE) 16:06:23 437.365/2234.400
GOMX 1 20 Jan 16:02:03 16:05:07 16° 61° (ENE) 16:08:08 467.674
O/OREOS (USA 219) 20 Jan 16:03:33 16:07:49 40° 60° (ENE) 16:12:05 437.305
Cosmos 2504 20 Jan 16:13:59 16:22:35 66° 282° (WNW) 16:30:42 435.465 / 435.565
AUBIESAT-1 20 Jan 16:14:39 16:15:29 11° 96° (E) 16:16:19 437.475
ITAMSAT 1 20 Jan 16:25:53 16:29:14 17° 269° (W) 16:32:37 435.822/435.867
KKS-1 20 Jan 16:26:35 16:30:17 25° 95° (E) 16:33:58 437.445
CUBESAT XI-V 20 Jan 16:34:31 16:37:32 17° 90° (E) 16:40:32 437.345
HORYU 2 20 Jan 16:36:11 16:40:02 30° 67° (ENE) 16:43:55 437.375
Cubesat XI-IV 20 Jan 16:40:50 16:44:06 17° 58° (ENE) 16:47:23 437.490
DOVE 4 20 Jan 16:41:03 16:43:25 14° 61° (ENE) 16:45:44 437.250
CUSAT 1 20 Jan 16:41:54 16:46:36 17° 282° (WNW) 16:51:10 437.405
NOAA 18 20 Jan 16:47:58 16:50:05 12° 53° (NE) 16:52:11 137.9125
AO-7 20 Jan 16:48:09 16:55:08 29° 266° (W) 17:02:10 29.400- 29.500
NOAA 15 20 Jan 16:48:32 16:52:21 21° 60° (ENE) 16:56:11 137.62
SO-50 20 Jan 16:53:35 16:58:07 72° 52° (NE) 17:02:34 436.795
BEESAT 3 20 Jan 16:55:47 16:59:36 58° 121° (ESE) 17:03:29 437.485
ITUPSAT 1 20 Jan 16:56:56 17:00:32 21° 298° (WNW) 17:04:08 437.325
YUBILEINY 20 Jan 17:04:13 17:10:54 23° 299° (WNW) 17:17:39 435.215
M-CUBED/EXP-1 PRIME 20 Jan 17:10:23 17:13:46 74° 109° (ESE) 17:17:01 437.505
LilacSat-2 20 Jan 17:16:31 17:19:36 24° 68° (ENE) 17:22:42 437.200
STARS 20 Jan 17:18:58 17:23:07 41° 99° (E) 17:27:15 437.465
MOZHAYETS 4 20 Jan 17:24:51 17:28:50 29° 293° (WNW) 17:32:48
DANDE 20 Jan 17:32:18 17:37:38 20° 278° (W) 17:43:13 436.750
BEESAT 20 Jan 17:33:36 17:34:38 11° 304° (NW) 17:35:40 436.000
BRITE-PL 20 Jan 17:34:24 17:39:46 42° 263° (W) 17:45:05 437.365/2234.400
CUTE-I 20 Jan 17:35:15 17:40:18 46° 69° (ENE) 17:45:21 437.470
GOMX 1 20 Jan 17:37:12 17:42:37 82° 259° (W) 17:47:47 467.674
BEESAT 2 20 Jan 17:40:51 17:44:47 76° 124° (SE) 17:48:48 435.950
O/OREOS (USA 219) 20 Jan 17:43:28 17:46:59 23° 258° (WSW) 17:50:30 437.305
AUBIESAT-1 20 Jan 17:47:00 17:50:15 45° 293° (WNW) 17:53:24 437.475
KKS-1 20 Jan 18:02:54 18:06:54 33° 292° (WNW) 18:10:51 437.445
CINEMA 3 20 Jan 18:07:08 18:10:19 20° 65° (ENE) 18:13:27 145.822/145.860
HO-68 20 Jan 18:09:54 18:15:57 30° 58° (ENE) 18:22:00 435.675
CUBESAT XI-V 20 Jan 18:10:40 18:15:16 57° 288° (WNW) 18:19:50 437.345
HORYU 2 20 Jan 18:12:46 18:16:34 28° 264° (W) 18:20:23 437.375
Cosmos 2504 20 Jan 18:13:18 18:17:38 15° 304° (NW) 18:21:51 435.465 / 435.565
DOVE 4 20 Jan 18:15:33 18:20:33 83° 258° (WSW) 18:25:17 437.250
CANX-2 20 Jan 18:16:32 18:19:15 17° 63° (ENE) 18:21:59 2200.000
Cubesat XI-IV 20 Jan 18:18:13 18:23:32 79° 256° (WSW) 18:28:53 437.490
NOAA 18 20 Jan 18:24:19 18:29:47 71° 72° (ENE) 18:35:16 137.9125
NOAA 15 20 Jan 18:26:24 18:31:39 63° 258° (WSW) 18:36:57 137.62
SEEDS 20 Jan 18:27:56 18:29:54 13° 61° (ENE) 18:31:53 437.485
BEESAT 3 20 Jan 18:34:42 18:37:33 19° 321° (NW) 18:40:27 437.485
SO-50 20 Jan 18:35:35 18:38:00 14° 251° (WSW) 18:40:24 436.795
Cosmos 2499 20 Jan 18:37:17 18:42:21 18° 78° (ENE) 18:47:14 435.465 / 435.565
AAUSAT CUBESAT 2 20 Jan 18:45:42 18:45:56 10° 59° (ENE) 18:46:10 437.432
LilacSat-2 20 Jan 18:50:37 18:53:48 26° 265° (W) 18:57:02 437.200
STARS 20 Jan 18:55:54 18:59:13 21° 296° (WNW) 19:02:31 437.465
CUBEBUG 2 20 Jan 19:00:30 19:03:13 17° 64° (ENE) 19:05:57 437.445
CUTE-I 20 Jan 19:16:12 19:20:32 25° 266° (W) 19:24:55 437.470
GOMX 1 20 Jan 19:19:48 19:21:19 11° 273° (W) 19:22:51 467.674
BEESAT 2 20 Jan 19:20:28 19:23:04 16° 323° (NW) 19:25:41 435.950
CUTE 1.7 + AOD 2 20 Jan 19:21:08 19:25:20 65° 74° (ENE) 19:29:36 437.475
FUNcube-1 20 Jan 19:24:38 19:25:55 11° 60° (ENE) 19:27:14 145.935
UWE-3 20 Jan 19:27:48 19:30:55 21° 65° (ENE) 19:34:04 435.000/436.395/437.385
AIST 2 20 Jan 19:41:34 19:45:10 30° 116° (ESE) 19:48:51 435.215
CINEMA 3 20 Jan 19:43:03 19:47:14 41° 262° (W) 19:51:18 145.822/145.860
ZACube-1 20 Jan 19:45:55 19:48:57 20° 65° (ENE) 19:52:01 437.345
CANX-2 20 Jan 19:50:33 19:54:42 52° 260° (W) 19:58:54 2200.000
GONETS M04 20 Jan 19:52:00 20:00:07 46° 88° (E) 20:08:19
HO-68 20 Jan 19:56:07 20:03:14 62° 257° (WSW) 20:10:23 435.675
SEEDS 20 Jan 20:00:50 20:05:02 70° 259° (WSW) 20:09:17 437.485
STRAND 1 20 Jan 20:02:27 20:07:33 61° 101° (E) 20:12:39 437.568
Cubesat XI-IV 20 Jan 20:03:48 20:04:27 10° 274° (W) 20:05:07 437.490
COMPASS 1 20 Jan 20:05:34 20:09:45 88° 77° (ENE) 20:14:00 437.405
NOAA 18 20 Jan 20:07:29 20:10:59 17° 269° (W) 20:14:30 137.9125
AAUSAT CUBESAT 2 20 Jan 20:16:31 20:20:41 89° 81° (E) 20:24:55 437.432
Oscar 11 20 Jan 20:20:30 20:24:31 39° 70° (ENE) 20:28:34 145.826/435.025
Cosmos 2499 20 Jan 20:26:01 20:34:28 87° 97° (E) 20:42:17 435.465 / 435.565
CUBEBUG 2 20 Jan 20:35:31 20:39:31 46° 261° (W) 20:43:32 437.445
FUNcube-1 20 Jan 20:57:26 21:01:33 78° 259° (W) 21:05:44 145.935
CUTE 1.7 + AOD 2 20 Jan 20:59:48 21:01:37 12° 271° (W) 21:03:27 437.475
UWE-3 20 Jan 21:03:21 21:07:11 36° 263° (W) 21:11:02 435.000/436.395/437.385
AIST 2 20 Jan 21:19:50 21:23:36 32° 314° (NW) 21:27:25 435.215
ZACube-1 20 Jan 21:21:07 21:25:00 38° 263° (W) 21:28:55 437.345
HUMSAT D 20 Jan 21:28:19 21:32:09 40° 71° (ENE) 21:36:04 437.325/437.525
DELFI C3 20 Jan 21:30:16 21:34:16 77° 76° (ENE) 21:38:19 145.870
PRISM 20 Jan 21:38:29 21:42:11 31° 97° (E) 21:45:51 437.425
STRAND 1 20 Jan 21:42:37 21:46:17 20° 299° (WNW) 21:49:56 437.568
GONETS M04 20 Jan 21:48:50 21:57:00 43° 289° (WNW) 22:05:16
HO-68 20 Jan 21:51:31 21:52:23 10° 277° (W) 21:53:15 435.675
Oscar 11 20 Jan 21:57:34 22:00:48 21° 267° (W) 22:04:05 145.826/435.025
UNISAT 6 20 Jan 22:09:38 22:13:15 24° 94° (E) 22:16:56 437.425
RS-15 20 Jan 22:14:40 22:22:08 20° 96° (E) 22:29:45 29.354- 29.394
BY70-1 20 Jan 22:18:02 22:20:45 29° 70° (ENE) 22:23:40 436.1900
TIGRISAT 20 Jan 22:22:37 22:26:32 30° 96° (E) 22:30:31 435.000
Cosmos 2499 20 Jan 22:22:37 22:28:33 21° 297° (WNW) 22:34:13 435.465 / 435.565
ESTCUBE 1 20 Jan 22:27:41 22:31:31 27° 66° (ENE) 22:35:22 437.505/2401.250
AO-85 20 Jan 22:36:57 22:40:48 49° 50° (NE) 22:44:35 145.980
ANTELSAT 20 Jan 22:37:44 22:42:00 46° 99° (E) 22:46:22 437.575/2403.000
VELOX 1 20 Jan 22:38:41 22:41:05 15° 60° (ENE) 22:43:30 145.980
ISS 20 Jan 22:50:34 22:53:40 43° 143° (SE) 22:56:47 145.825
SPROUT 20 Jan 23:03:22 23:06:11 17° 63° (ENE) 23:09:00 437.525
HUMSAT D 20 Jan 23:05:02 23:07:57 19° 268° (W) 23:10:54 437.325/437.525
UKube-1 20 Jan 23:08:58 23:09:56 11° 58° (ENE) 23:10:53 .
DX 1 20 Jan 23:09:12 23:11:37 15° 61° (ENE) 23:14:03 434.975-435.025
JAS-2 20 Jan 23:11:32 23:18:21 43° 97° (E) 23:25:39 435.910
PRISM 20 Jan 23:14:01 23:17:20 24° 294° (WNW) 23:20:38 437.425
YUBILEINY 20 Jan 23:19:37 23:20:57 10° 47° (NE) 23:22:17 435.215
CUBEBUG 1 20 Jan 23:21:36 23:25:54 56° 73° (ENE) 23:30:13 437.445
50 SAT 20 Jan 23:25:40 23:28:38 25° 68° (ENE) 23:31:38 437.505
QB50P1 20 Jan 23:32:04 23:34:55 17° 92° (E) 23:37:46 145.935-145.965
BEESAT 3 20 Jan 23:34:47 23:36:22 12° 32° (NNE) 23:37:57 437.485
POLYITAN 1 20 Jan 23:36:12 23:39:18 19° 93° (E) 23:42:23 437.675
QB50P2 20 Jan 23:37:20 23:40:37 21° 94° (E) 23:43:52 145.880/145.840
AISAT 20 Jan 23:39:17 23:43:39 58° 72° (ENE) 23:48:01 437.250
UNISAT 6 20 Jan 23:45:59 23:50:02 36° 291° (WNW) 23:54:09 437.425
BY70-1 20 Jan 23:49:24 23:51:12 14° 269° (W) 23:53:04 436.1900
PCSat 20 Jan 23:50:45 23:52:51 12° 102° (ESE) 23:54:58 145.827
POPSAT HIP 1 20 Jan 23:58:19 00:02:08 32° 97° (E) 00:05:55 437.405
TIGRISAT 20 Jan 23:59:22 00:03:10 29° 292° (WNW) 00:07:01 435.000
ESTCUBE 1 21 Jan 00:04:06 00:08:12 33° 264° (W) 00:12:21 437.505/2401.250
DUCHIFAT 1 21 Jan 00:08:25 00:12:18 35° 98° (E) 00:16:10 145.980
VELOX 1 21 Jan 00:12:35 00:17:01 69° 258° (WSW) 00:21:28 145.980
NANOSAT C BR1 21 Jan 00:14:08 00:18:11 45° 99° (E) 00:22:13 145.865
AIST 1 21 Jan 00:15:10 00:17:09 13° 66° (ENE) 00:19:08
ANTELSAT 21 Jan 00:15:12 00:18:26 20° 296° (WNW) 00:21:43 437.575/2403.000
AO-85 21 Jan 00:18:21 00:20:48 16° 248° (WSW) 00:23:13 145.980
BEESAT 2 21 Jan 00:20:12 00:22:27 14° 35° (NE) 00:24:43 435.950
